Weather History for KOEB - January, 2013

Change the Weather History Date:

Tuesday, January 22, 2013

  Actual Average (KJYM) Record (KJYM)
Temperature  
Mean Temperature 5 °F -  
Max Temperature 11 °F 30 °F 53 °F (1964)
Min Temperature 0 °F 16 °F -19 °F (1984)
Degree Days  
Heating Degree Days 60    
Moisture  
Dew Point -1 °F    
Average Humidity 70    
Maximum Humidity 79    
Minimum Humidity 58    
Precipitation  
Precipitation 0.00 in - - ()
Sea Level Pressure  
Sea Level Pressure 30.22 in    
Wind  
Wind Speed 10 mph (WSW)    
Max Wind Speed 21 mph    
Max Gust Speed 23 mph    
Visibility 8 miles    
Events Snow    
Averages and records for this station are not official NWS values.
T = Trace of Precipitation, MM = Missing Value Source: NWS Daily Summary

Daily Weather History Graph

Daily Weather History Graph

Search for Another Location

Airport or City:

Trip Planner

Search our weather history database for the weather conditions in past years. The results will help you decide how hot, cold, wet, or windy it might be!

Date:

Astronomy

Jan. 22, 2013 Rise Set
Actual Time 8:01 AM EST 5:42 PM EST
Civil Twilight 7:31 AM EST 6:13 PM EST
Nautical Twilight 6:57 AM EST 6:47 PM EST
Astronomical Twilight 6:23 AM EST 7:20 PM EST
Moon 2:04 PM EST (1/22) 4:22 AM EST (1/22)
Length of Visible Light 10h 42m
Length of Day
9h 41m
Waxing Gibbous, 82% of the Moon is Illuminated
Jan 22
Waxing Gibbous
Jan 26
Full
Feb 3
Last Quarter
Feb 10
New
Feb 17
First Quarter

Hourly Weather History & Observations

Time (EST) Temp. Windchill Dew Point Humidity Pressure Visibility Wind Dir Wind Speed Gust Speed Precip Events Conditions
12:16 AM 8.6 °F -5.5 °F -0.4 °F 67% 30.11 in 10.0 mi West 10.4 mph 15.0 mph N/A   Overcast
12:38 AM 6.8 °F -8.6 °F -0.4 °F 72% 30.11 in 7.0 mi WNW 11.5 mph 17.3 mph N/A   Overcast
1:16 AM 6.8 °F -8.6 °F -0.4 °F 72% 30.11 in 7.0 mi WNW 11.5 mph 20.7 mph N/A   Mostly Cloudy
1:36 AM 6.8 °F -7.8 °F -0.4 °F 72% 30.11 in 10.0 mi WNW 10.4 mph 17.3 mph N/A   Mostly Cloudy
2:16 AM 6.8 °F -9.3 °F -0.4 °F 72% 30.12 in 7.0 mi WNW 12.7 mph - N/A   Overcast
5:56 AM 3.2 °F -7.8 °F -2.2 °F 78% 30.17 in 5.0 mi North 5.8 mph - N/A   Haze
8:17 AM -0.4 °F - -5.8 °F 78% 30.21 in 0.8 mi Calm Calm - N/A Snow Snow
9:59 AM 6.8 °F -6.9 °F -0.4 °F 72% 30.25 in 7.0 mi West 9.2 mph - N/A   Mostly Cloudy
10:18 AM 6.8 °F -7.8 °F -0.4 °F 72% 30.25 in 10.0 mi WSW 10.4 mph - N/A   Overcast
10:33 AM 9.0 °F -5.1 °F 2.3 °F 74% 30.25 in 10.0 mi West 10.4 mph - N/A   Overcast
10:34 AM 9.0 °F -5.1 °F 2.1 °F 74% 30.25 in 10.0 mi West 10.4 mph - N/A   Overcast
10:55 AM 8.4 °F -6.5 °F 0.7 °F 71% 30.25 in 10.0 mi West 11.5 mph - N/A   Mostly Cloudy
11:15 AM 8.4 °F -5.7 °F 0.5 °F 70% 30.25 in 10.0 mi West 10.4 mph - N/A   Mostly Cloudy
11:34 AM 8.8 °F -7.5 °F 0.9 °F 70% 30.25 in 10.0 mi West 13.8 mph 18.4 mph N/A   Overcast
11:55 AM 8.6 °F -7.0 °F -0.0 °F 68% 30.25 in 7.0 mi West 12.7 mph - N/A   Overcast
12:15 PM 9.3 °F -6.1 °F 1.4 °F 70% 30.23 in 3.0 mi WSW 12.7 mph - N/A Snow Light Snow
12:34 PM 10.2 °F -7.4 °F 1.6 °F 68% 30.22 in 4.0 mi WSW 17.3 mph - N/A   Haze
12:55 PM 9.5 °F -5.9 °F 2.5 °F 73% 30.22 in 2.5 mi West 12.7 mph - N/A Snow Light Snow
1:14 PM 9.5 °F -6.6 °F 4.1 °F 79% 30.21 in 0.8 mi West 13.8 mph - N/A Snow Light Snow
1:34 PM 10.0 °F -4.5 °F 4.1 °F 77% 30.21 in 1.5 mi West 11.5 mph - N/A Snow Light Snow
1:55 PM 10.0 °F -4.5 °F 4.1 °F 77% 30.21 in 1.5 mi WSW 11.5 mph - N/A Snow Light Snow
2:14 PM 10.9 °F -7.9 °F 3.7 °F 73% 30.21 in 2.0 mi West 20.7 mph - N/A Snow Light Snow
2:34 PM 10.9 °F -4.1 °F 3.0 °F 70% 30.22 in 3.0 mi West 12.7 mph - N/A   Haze
2:55 PM 10.4 °F -7.2 °F 1.9 °F 69% 30.22 in 5.0 mi West 17.3 mph 20.7 mph N/A   Haze
3:14 PM 9.9 °F -7.3 °F -1.3 °F 61% 30.22 in 10.0 mi West 16.1 mph 23.0 mph N/A   Overcast
3:35 PM 10.2 °F -7.4 °F -1.5 °F 59% 30.22 in 10.0 mi West 17.3 mph 21.9 mph N/A   Overcast
3:55 PM 9.0 °F -7.3 °F -3.3 °F 58% 30.22 in 10.0 mi West 13.8 mph - N/A   Mostly Cloudy
4:14 PM 9.0 °F -5.9 °F -2.6 °F 60% 30.22 in 10.0 mi West 11.5 mph - N/A   Scattered Clouds
4:35 PM 9.5 °F -5.2 °F -1.8 °F 60% 30.22 in 10.0 mi West 11.5 mph - N/A   Clear
4:55 PM 8.4 °F -7.3 °F 0.3 °F 70% 30.23 in 4.0 mi West 12.7 mph - N/A   Haze
5:14 PM 7.7 °F -4.8 °F 2.1 °F 78% 30.24 in 4.0 mi West 8.1 mph - N/A   Haze
5:35 PM 7.7 °F -6.6 °F 1.8 °F 77% 30.24 in 3.0 mi West 10.4 mph - N/A Snow Light Snow
5:55 PM 7.3 °F -9.3 °F -0.9 °F 69% 30.25 in 7.0 mi WSW 13.8 mph - N/A   Overcast
6:14 PM 6.6 °F -8.8 °F -2.9 °F 65% 30.25 in 10.0 mi WSW 11.5 mph - N/A   Mostly Cloudy
6:35 PM 5.9 °F -8.0 °F -3.8 °F 64% 30.25 in 10.0 mi WSW 9.2 mph - N/A   Clear
6:55 PM 5.5 °F -7.4 °F -4.4 °F 64% 30.25 in 10.0 mi WSW 8.1 mph - N/A   Clear
7:14 PM 4.5 °F -6.3 °F -5.3 °F 64% 30.25 in 10.0 mi WSW 5.8 mph - N/A   Clear
7:35 PM 3.0 °F -6.4 °F -6.2 °F 66% 30.24 in 10.0 mi SW 4.6 mph - N/A   Clear
7:54 PM 2.3 °F -7.2 °F -6.3 °F 67% 30.24 in 10.0 mi SW 4.6 mph - N/A   Scattered Clouds
8:15 PM 1.4 °F -8.3 °F -6.9 °F 68% 30.23 in 10.0 mi SW 4.6 mph - N/A   Scattered Clouds
8:34 PM 0.7 °F -7.1 °F -7.1 °F 70% 30.23 in 10.0 mi SW 3.5 mph - N/A   Scattered Clouds
8:55 PM 1.2 °F -8.5 °F -6.7 °F 69% 30.24 in 10.0 mi SW 4.6 mph - N/A   Clear
9:14 PM 1.2 °F -8.5 °F -6.5 °F 70% 30.24 in 10.0 mi SW 4.6 mph - N/A   Clear
9:35 PM 1.9 °F -7.6 °F -6.3 °F 68% 30.23 in 10.0 mi WSW 4.6 mph - N/A   Clear
9:55 PM 2.3 °F -8.8 °F -6.0 °F 68% 30.23 in 10.0 mi SW 5.8 mph - N/A   Clear
10:14 PM 2.7 °F -8.4 °F -5.8 °F 68% 30.23 in 10.0 mi WSW 5.8 mph - N/A   Clear
10:35 PM 3.9 °F -8.2 °F -4.9 °F 67% 30.23 in 10.0 mi WSW 6.9 mph - N/A   Clear
10:55 PM 4.3 °F -7.8 °F -4.0 °F 69% 30.23 in 10.0 mi SW 6.9 mph - N/A   Scattered Clouds
11:14 PM 4.8 °F -8.3 °F -3.1 °F 70% 30.24 in 7.0 mi WSW 8.1 mph - N/A   Mostly Cloudy
11:35 PM 5.5 °F -7.4 °F -1.7 °F 72% 30.25 in 7.0 mi WSW 8.1 mph - N/A   Overcast
11:54 PM 6.3 °F -5.4 °F -1.1 °F 72% 30.25 in 7.0 mi WSW 6.9 mph - N/A Snow Light Snow